| time (UTC) | temp F | wind direction | speed knots | gust knots | rain 1hr in | rain 24hr in | rain mn in | humidity % | barometer mb |
| 20260502152329 | 56 | 8 | 2.6 | 7.0 | 0.00 | 0.00 | 0.00 | 51 | 1022.2 |
| 20260502151830 | 56 | 21 | 4.3 | 6.1 | 0.00 | 0.00 | 0.00 | 51 | 1022.2 |
| 20260502151330 | 56 | 36 | 2.6 | 4.3 | 0.00 | 0.00 | 0.00 | 53 | 1022.1 |
| 20260502150829 | 57 | 329 | 0.9 | 2.6 | 0.00 | 0.00 | 0.00 | 55 | 1022.1 |
| 20260502150330 | 57 | 108 | 0.9 | 3.5 | 0.00 | 0.00 | 0.00 | 52 | 1022.1 |
| 20260502130330 | 46 | 324 | 0.9 | 2.6 | 0.00 | 0.00 | 0.00 | 63 | 1021.5 |
| 20260502123329 | 42 | 229 | 0.0 | 1.7 | 0.00 | 0.00 | 0.00 | 71 | 1021.0 |
| 20260502122829 | 41 | 286 | 0.0 | 1.7 | 0.00 | 0.00 | 0.00 | 72 | 1021.0 |
| 20260502122329 | 41 | 91 | 0.0 | 1.7 | 0.00 | 0.00 | 0.00 | 72 | 1021.0 |
| 20260502121829 | 40 | 113 | 0.0 | 1.7 | 0.00 | 0.00 | 0.00 | 73 | 1020.9 |
| 20260502121329 | 40 | 260 | 0.0 | 0.9 | 0.00 | 0.00 | 0.00 | 73 | 1020.8 |
| 20260502120829 | 40 | 314 | 0.0 | 1.7 | 0.00 | 0.00 | 0.00 | 74 | 1020.8 |
| 20260502120330 | 39 | 78 | 0.0 | 0.9 | 0.00 | 0.00 | 0.00 | 74 | 1020.7 |
| 20260502115830 | 39 | 12 | 0.0 | 0.9 | 0.00 | 0.00 | 0.00 | 75 | 1020.6 |
| 20260502115329 | 39 | 307 | 0.0 | 1.7 | 0.00 | 0.00 | 0.00 | 75 | 1020.5 |
| 20260502114830 | 39 | 0 | 0.0 | 0.0 | 0.00 | 0.00 | 0.00 | 75 | 1020.4 |
| 20260502114329 | 39 | 87 | 0.0 | 0.9 | 0.00 | 0.00 | 0.00 | 75 | 1020.4 |
| 20260502113829 | 39 | 34 | 0.0 | 0.9 | 0.00 | 0.00 | 0.00 | 74 | 1020.3 |
| 20260502113329 | 39 | 355 | 0.0 | 0.9 | 0.00 | 0.00 | 0.00 | 74 | 1020.3 |
| 20260502112829 | 39 | 279 | 0.9 | 2.6 | 0.00 | 0.00 | 0.00 | 74 | 1020.2 |
| 20260502112329 | 39 | 279 | 0.0 | 0.9 | 0.00 | 0.00 | 0.00 | 74 | 1020.2 |
| 20260502111832 | 39 | 0 | 0.0 | 0.0 | 0.00 | 0.00 | 0.00 | 74 | 1020.2 |
| 20260502111329 | 39 | 0 | 0.0 | 0.0 | 0.00 | 0.00 | 0.00 | 74 | 1020.2 |
| 20260502110829 | 39 | 0 | 0.0 | 0.0 | 0.00 | 0.00 | 0.00 | 74 | 1020.2 |
| 20260502110329 | 39 | 0 | 0.0 | 0.0 | 0.00 | 0.00 | 0.00 | 74 | 1020.2 |
| 20260502105830 | 39 | 0 | 0.0 | 0.0 | 0.00 | 0.00 | 0.00 | 73 | 1020.2 |
| 20260502105330 | 40 | 0 | 0.0 | 0.0 | 0.00 | 0.00 | 0.00 | 72 | 1020.1 |
| 20260502104829 | 40 | 0 | 0.0 | 0.0 | 0.00 | 0.00 | 0.00 | 72 | 1020.1 |
| 20260502104329 | 40 | 0 | 0.0 | 0.0 | 0.00 | 0.00 | 0.00 | 71 | 1020.1 |
| 20260502103830 | 40 | 0 | 0.0 | 0.0 | 0.00 | 0.00 | 0.00 | 71 | 1020.1 |
| 20260502103331 | 41 | 0 | 0.0 | 0.0 | 0.00 | 0.00 | 0.00 | 70 | 1020.0 |
| 20260502102830 | 41 | 318 | 0.0 | 0.9 | 0.00 | 0.00 | 0.00 | 70 | 1020.0 |
| 20260502102329 | 41 | 0 | 0.0 | 0.0 | 0.00 | 0.00 | 0.00 | 70 | 1020.0 |
| 20260502101329 | 41 | 280 | 0.0 | 0.9 | 0.00 | 0.00 | 0.00 | 69 | 1019.9 |
| 20260502100830 | 41 | 0 | 0.0 | 0.0 | 0.00 | 0.00 | 0.00 | 69 | 1019.9 |
| 20260502100329 | 42 | 0 | 0.0 | 0.0 | 0.00 | 0.00 | 0.00 | 69 | 1019.8 |
| 20260502091329 | 43 | 316 | 0.9 | 1.7 | 0.00 | 0.00 | 0.00 | 63 | 1019.5 |
| 20260502090829 | 43 | 249 | 0.0 | 1.7 | 0.00 | 0.00 | 0.00 | 64 | 1019.5 |
| 20260502090332 | 43 | 336 | 0.9 | 3.5 | 0.00 | 0.00 | 0.00 | 64 | 1019.4 |
| 20260502071329 | 47 | 3 | 0.9 | 2.6 | 0.00 | 0.00 | 0.00 | 54 | 1019.4 |
| 20260502070829 | 47 | 341 | 0.9 | 3.5 | 0.00 | 0.00 | 0.00 | 54 | 1019.4 |
| 20260502070329 | 47 | 5 | 0.0 | 1.7 | 0.00 | 0.00 | 0.00 | 54 | 1019.4 |
| 20260502065830 | 47 | 0 | 0.0 | 1.7 | 0.00 | 0.00 | 0.00 | 54 | 1019.3 |
| 20260502065329 | 47 | 275 | 0.0 | 0.9 | 0.00 | 0.00 | 0.00 | 54 | 1019.4 |
| 20260502064829 | 48 | 0 | 0.0 | 0.0 | 0.00 | 0.00 | 0.00 | 54 | 1019.4 |
| 20260502064329 | 48 | 354 | 0.0 | 1.7 | 0.00 | 0.00 | 0.00 | 53 | 1019.4 |
| 20260502063829 | 49 | 0 | 0.0 | 0.0 | 0.00 | 0.00 | 0.00 | 53 | 1019.4 |
| 20260502063330 | 49 | 350 | 0.0 | 1.7 | 0.00 | 0.00 | 0.00 | 52 | 1019.4 |
| 20260502062829 | 49 | 42 | 0.0 | 1.7 | 0.00 | 0.00 | 0.00 | 52 | 1019.4 |
| 20260502062330 | 49 | 17 | 1.7 | 5.2 | 0.00 | 0.00 | 0.00 | 52 | 1019.5 |
| 20260502061830 | 49 | 6 | 0.9 | 2.6 | 0.00 | 0.00 | 0.00 | 52 | 1019.5 |
| 20260502061330 | 49 | 0 | 1.7 | 2.6 | 0.00 | 0.00 | 0.00 | 51 | 1019.5 |
| 20260502060829 | 49 | 343 | 0.9 | 2.6 | 0.00 | 0.00 | 0.00 | 51 | 1019.5 |
| 20260502060330 | 50 | 353 | 0.0 | 2.6 | 0.00 | 0.00 | 0.00 | 51 | 1019.6 |
| 20260502055829 | 50 | 19 | 0.9 | 3.5 | 0.00 | 0.00 | 0.00 | 51 | 1019.6 |
| 20260502055329 | 50 | 13 | 1.7 | 3.5 | 0.00 | 0.00 | 0.00 | 51 | 1019.6 |
| 20260502054830 | 50 | 351 | 0.9 | 2.6 | 0.00 | 0.00 | 0.00 | 51 | 1019.6 |
| 20260502054329 | 50 | 11 | 2.6 | 3.5 | 0.00 | 0.00 | 0.00 | 51 | 1019.6 |
| 20260502053829 | 50 | 0 | 1.7 | 3.5 | 0.00 | 0.00 | 0.00 | 52 | 1019.5 |
| 20260502053329 | 51 | 20 | 1.7 | 2.6 | 0.00 | 0.00 | 0.00 | 52 | 1019.5 |
| 20260502052829 | 51 | 351 | 0.0 | 1.7 | 0.00 | 0.00 | 0.00 | 52 | 1019.4 |
| 20260502052330 | 51 | 1 | 0.9 | 5.2 | 0.00 | 0.00 | 0.00 | 51 | 1019.4 |
| 20260502051829 | 51 | 25 | 2.6 | 4.3 | 0.00 | 0.00 | 0.00 | 50 | 1019.4 |
| 20260502051329 | 51 | 0 | 1.7 | 5.2 | 0.00 | 0.00 | 0.00 | 51 | 1019.3 |
| 20260502050829 | 51 | 2 | 1.7 | 3.5 | 0.00 | 0.00 | 0.00 | 51 | 1019.3 |
| 20260502050329 | 51 | 9 | 1.7 | 3.5 | 0.00 | 0.00 | 0.00 | 51 | 1019.3 |
| 20260502045829 | 51 | 350 | 0.9 | 3.5 | 0.00 | 0.00 | 0.00 | 51 | 1019.2 |
| 20260502045329 | 51 | 11 | 2.6 | 5.2 | 0.00 | 0.00 | 0.00 | 51 | 1019.2 |
| 20260502044829 | 51 | 17 | 0.9 | 2.6 | 0.00 | 0.00 | 0.00 | 52 | 1019.2 |
| 20260502044329 | 51 | 355 | 0.9 | 2.6 | 0.00 | 0.00 | 0.00 | 53 | 1019.2 |
| 20260502043829 | 51 | 346 | 0.9 | 1.7 | 0.00 | 0.00 | 0.00 | 53 | 1019.2 |
| 20260502043329 | 51 | 12 | 0.9 | 1.7 | 0.00 | 0.00 | 0.00 | 53 | 1019.2 |
| 20260502042829 | 52 | 11 | 1.7 | 3.5 | 0.00 | 0.00 | 0.00 | 53 | 1019.1 |
| 20260502042330 | 52 | 8 | 0.0 | 1.7 | 0.00 | 0.00 | 0.00 | 53 | 1019.1 |
| 20260502041830 | 52 | 318 | 0.0 | 2.6 | 0.00 | 0.00 | 0.00 | 54 | 1019.1 |
| 20260502041329 | 53 | 0 | 0.0 | 0.0 | 0.00 | 0.00 | 0.00 | 53 | 1019.1 |
| 20260502040829 | 53 | 0 | 0.0 | 0.0 | 0.00 | 0.00 | 0.00 | 52 | 1019.1 |
| 20260502040330 | 53 | 1 | 0.0 | 1.7 | 0.00 | 0.00 | 0.00 | 51 | 1019.1 |
| 20260502035829 | 53 | 327 | 0.9 | 3.5 | 0.00 | 0.00 | 0.00 | 51 | 1019.1 |
| 20260502035330 | 54 | 41 | 0.0 | 0.9 | 0.00 | 0.00 | 0.00 | 51 | 1019.1 |
| 20260502034830 | 54 | 8 | 0.9 | 2.6 | 0.00 | 0.00 | 0.00 | 51 | 1019.1 |
| 20260502034329 | 54 | 27 | 2.6 | 5.2 | 0.00 | 0.00 | 0.00 | 50 | 1019.0 |
| 20260502033829 | 53 | 20 | 3.5 | 5.2 | 0.00 | 0.00 | 0.00 | 51 | 1019.0 |
| 20260502033329 | 53 | 1 | 1.7 | 3.5 | 0.00 | 0.00 | 0.00 | 53 | 1019.0 |
| 20260502032829 | 53 | 0 | 0.0 | 0.0 | 0.00 | 0.00 | 0.00 | 54 | 1018.9 |
| 20260502032329 | 53 | 0 | 0.0 | 0.0 | 0.00 | 0.00 | 0.00 | 54 | 1018.9 |
| 20260502031830 | 54 | 0 | 0.0 | 0.0 | 0.00 | 0.00 | 0.00 | 53 | 1018.8 |
| 20260502031330 | 54 | 345 | 0.0 | 1.7 | 0.00 | 0.00 | 0.00 | 52 | 1018.7 |
| 20260502030829 | 54 | 329 | 0.0 | 1.7 | 0.00 | 0.00 | 0.00 | 52 | 1018.7 |
| 20260502030330 | 54 | 16 | 0.0 | 1.7 | 0.00 | 0.00 | 0.00 | 52 | 1018.6 |
| 20260502025831 | 55 | 0 | 0.0 | 0.0 | 0.00 | 0.00 | 0.00 | 52 | 1018.5 |
| 20260502025329 | 55 | 17 | 0.0 | 0.9 | 0.00 | 0.00 | 0.00 | 50 | 1018.4 |
| 20260502024829 | 55 | 358 | 0.0 | 1.7 | 0.00 | 0.00 | 0.00 | 50 | 1018.3 |
| 20260502024330 | 55 | 24 | 0.0 | 0.9 | 0.00 | 0.00 | 0.00 | 50 | 1018.3 |
| 20260502023829 | 56 | 11 | 0.0 | 0.0 | 0.00 | 0.00 | 0.00 | 49 | 1018.2 |
| 20260502023329 | 56 | 348 | 0.9 | 1.7 | 0.00 | 0.00 | 0.00 | 49 | 1018.2 |
| 20260502022829 | 56 | 1 | 0.9 | 2.6 | 0.00 | 0.00 | 0.00 | 49 | 1018.1 |
| 20260502022329 | 56 | 10 | 0.9 | 2.6 | 0.00 | 0.00 | 0.00 | 49 | 1017.9 |
| 20260502021829 | 56 | 10 | 0.0 | 1.7 | 0.00 | 0.00 | 0.00 | 48 | 1017.9 |
| 20260502021329 | 56 | 1 | 0.9 | 2.6 | 0.00 | 0.00 | 0.00 | 48 | 1017.8 |
| 20260502020829 | 56 | 324 | 0.0 | 0.9 | 0.00 | 0.00 | 0.00 | 48 | 1017.7 |
| 20260502020332 | 56 | 12 | 1.7 | 3.5 | 0.00 | 0.00 | 0.00 | 48 | 1017.6 |
| 20260502015829 | 56 | 4 | 0.0 | 1.7 | 0.00 | 0.00 | 0.00 | 48 | 1017.5 |
| 20260502015329 | 57 | 6 | 0.9 | 3.5 | 0.00 | 0.00 | 0.00 | 48 | 1017.5 |
| 20260502014830 | 57 | 347 | 0.9 | 2.6 | 0.00 | 0.00 | 0.00 | 48 | 1017.4 |
| 20260502014329 | 57 | 338 | 0.9 | 1.7 | 0.00 | 0.00 | 0.00 | 48 | 1017.3 |
| 20260502013831 | 57 | 337 | 0.9 | 1.7 | 0.00 | 0.00 | 0.00 | 48 | 1017.3 |
| 20260502013329 | 57 | 0 | 0.0 | 0.0 | 0.00 | 0.00 | 0.00 | 48 | 1017.2 |
| 20260502012829 | 57 | 334 | 0.0 | 0.9 | 0.00 | 0.00 | 0.00 | 48 | 1017.1 |
| 20260502012329 | 58 | 0 | 0.0 | 0.0 | 0.00 | 0.00 | 0.00 | 48 | 1017.0 |
| 20260502011829 | 58 | 0 | 0.0 | 0.0 | 0.00 | 0.00 | 0.00 | 47 | 1016.9 |
| 20260502011330 | 58 | 0 | 0.0 | 0.0 | 0.00 | 0.00 | 0.00 | 47 | 1016.8 |
| 20260502010830 | 59 | 346 | 0.0 | 1.7 | 0.00 | 0.00 | 0.00 | 46 | 1016.8 |
| 20260502010329 | 59 | 11 | 0.0 | 0.9 | 0.00 | 0.00 | 0.00 | 45 | 1016.7 |
| 20260502005830 | 60 | 0 | 0.0 | 0.0 | 0.00 | 0.00 | 0.00 | 44 | 1016.6 |
| 20260502004845 | 61 | 0 | 0.0 | 0.0 | 0.00 | 0.00 | 0.00 | 43 | 1016.5 |
| 20260502004329 | 62 | 22 | 0.0 | 1.7 | 0.00 | 0.00 | 0.00 | 43 | 1016.4 |
| 20260502003829 | 63 | 260 | 0.0 | 0.0 | 0.00 | 0.00 | 0.00 | 41 | 1016.4 |
| 20260502003330 | 63 | 0 | 0.0 | 0.0 | 0.00 | 0.00 | 0.00 | 40 | 1016.4 |
| 20260502002829 | 63 | 5 | 1.7 | 3.5 | 0.00 | 0.00 | 0.00 | 40 | 1016.3 |
| 20260502002330 | 63 | 283 | 0.9 | 3.5 | 0.00 | 0.00 | 0.00 | 41 | 1016.3 |
| 20260502001830 | 63 | 219 | 0.0 | 1.7 | 0.00 | 0.00 | 0.00 | 40 | 1016.2 |
| 20260502001329 | 63 | 158 | 1.7 | 2.6 | 0.00 | 0.00 | 0.00 | 40 | 1016.2 |
| 20260502000829 | 64 | 246 | 0.0 | 1.7 | 0.00 | 0.00 | 0.00 | 43 | 1016.2 |
| 20260502000332 | 64 | 0 | 0.0 | 0.0 | 0.00 | 0.00 | 0.00 | 41 | 1016.2 |
| 20260501235830 | 65 | 208 | 0.0 | 2.6 | 0.00 | 0.00 | 0.00 | 39 | 1016.2 |
| 20260501235329 | 65 | 286 | 0.0 | 0.9 | 0.00 | 0.00 | 0.00 | 39 | 1016.2 |
| 20260501234830 | 64 | 8 | 0.9 | 3.5 | 0.00 | 0.00 | 0.00 | 40 | 1016.2 |
| 20260501234330 | 65 | 69 | 0.9 | 3.5 | 0.00 | 0.00 | 0.00 | 39 | 1016.2 |
| 20260501233829 | 65 | 271 | 0.9 | 2.6 | 0.00 | 0.00 | 0.00 | 39 | 1016.2 |
| 20260501233330 | 65 | 19 | 0.0 | 1.7 | 0.00 | 0.00 | 0.00 | 40 | 1016.2 |
| 20260501232829 | 65 | 324 | 2.6 | 4.3 | 0.00 | 0.00 | 0.00 | 39 | 1016.2 |
| 20260501232329 | 64 | 286 | 1.7 | 3.5 | 0.00 | 0.00 | 0.00 | 39 | 1016.2 |
| 20260501231829 | 64 | 269 | 0.9 | 3.5 | 0.00 | 0.00 | 0.00 | 39 | 1016.2 |
| 20260501231330 | 64 | 304 | 1.7 | 3.5 | 0.00 | 0.00 | 0.00 | 39 | 1016.2 |
| 20260501230830 | 65 | 344 | 0.0 | 1.7 | 0.00 | 0.00 | 0.00 | 38 | 1016.1 |
| 20260501230331 | 65 | 299 | 0.9 | 3.5 | 0.00 | 0.00 | 0.00 | 38 | 1016.2 |
| 20260501225831 | 66 | 1 | 2.6 | 5.2 | 0.00 | 0.00 | 0.00 | 37 | 1016.2 |
| 20260501225329 | 66 | 8 | 1.7 | 3.5 | 0.00 | 0.00 | 0.00 | 38 | 1016.2 |
| 20260501224830 | 65 | 283 | 0.9 | 3.5 | 0.00 | 0.00 | 0.00 | 39 | 1016.2 |
| 20260501224330 | 65 | 25 | 2.6 | 7.0 | 0.00 | 0.00 | 0.00 | 38 | 1016.2 |
| 20260501223830 | 64 | 13 | 1.7 | 3.5 | 0.00 | 0.00 | 0.00 | 38 | 1016.2 |
| 20260501223329 | 64 | 7 | 3.5 | 7.0 | 0.00 | 0.00 | 0.00 | 38 | 1016.2 |
| 20260501222830 | 64 | 354 | 2.6 | 3.5 | 0.00 | 0.00 | 0.00 | 39 | 1016.2 |
| 20260501222330 | 64 | 44 | 0.9 | 1.7 | 0.00 | 0.00 | 0.00 | 40 | 1016.3 |
| 20260501221829 | 65 | 355 | 1.7 | 5.2 | 0.00 | 0.00 | 0.00 | 39 | 1016.3 |
| 20260501221329 | 66 | 160 | 0.9 | 1.7 | 0.00 | 0.00 | 0.00 | 38 | 1016.2 |
| 20260501220829 | 67 | 259 | 2.6 | 7.0 | 0.00 | 0.00 | 0.00 | 39 | 1016.2 |
| 20260501220329 | 66 | 253 | 1.7 | 5.2 | 0.00 | 0.00 | 0.00 | 39 | 1016.3 |
| 20260501215830 | 66 | 250 | 4.3 | 7.0 | 0.00 | 0.00 | 0.00 | 39 | 1016.3 |
| 20260501215329 | 66 | 238 | 2.6 | 5.2 | 0.00 | 0.00 | 0.00 | 40 | 1016.4 |
| 20260501214415 | 66 | 261 | 3.5 | 7.0 | 0.00 | 0.00 | 0.00 | 39 | 1016.5 |
| 20260501213830 | 65 | 21 | 0.9 | 3.5 | 0.00 | 0.00 | 0.00 | 39 | 1016.6 |
| 20260501213329 | 65 | 341 | 2.6 | 5.2 | 0.00 | 0.00 | 0.00 | 40 | 1016.6 |
| 20260501212829 | 66 | 266 | 1.7 | 3.5 | 0.00 | 0.00 | 0.00 | 40 | 1016.8 |
| 20260501212330 | 65 | 44 | 0.9 | 3.5 | 0.00 | 0.00 | 0.00 | 41 | 1016.9 |
| 20260501211829 | 65 | 281 | 1.7 | 5.2 | 0.00 | 0.00 | 0.00 | 40 | 1016.9 |
| 20260501211329 | 65 | 12 | 1.7 | 4.3 | 0.00 | 0.00 | 0.00 | 40 | 1017.1 |
| 20260501210829 | 66 | 268 | 1.7 | 6.1 | 0.00 | 0.00 | 0.00 | 42 | 1017.2 |
| 20260501210332 | 65 | 312 | 2.6 | 3.5 | 0.00 | 0.00 | 0.00 | 40 | 1017.3 |
| 20260501205829 | 65 | 16 | 0.9 | 2.6 | 0.00 | 0.00 | 0.00 | 40 | 1017.4 |
| 20260501205329 | 64 | 275 | 1.7 | 2.6 | 0.00 | 0.00 | 0.00 | 39 | 1017.4 |
| 20260501204829 | 64 | 272 | 1.7 | 3.5 | 0.00 | 0.00 | 0.00 | 40 | 1017.5 |
| 20260501204330 | 64 | 46 | 1.7 | 4.3 | 0.00 | 0.00 | 0.00 | 40 | 1017.6 |
| 20260501203829 | 64 | 348 | 0.9 | 1.7 | 0.00 | 0.00 | 0.00 | 41 | 1017.6 |
| 20260501203329 | 64 | 5 | 0.9 | 2.6 | 0.00 | 0.00 | 0.00 | 40 | 1017.7 |
| 20260501202829 | 64 | 289 | 1.7 | 4.3 | 0.00 | 0.00 | 0.00 | 40 | 1017.7 |
| 20260501202330 | 64 | 102 | 0.0 | 0.9 | 0.00 | 0.00 | 0.00 | 40 | 1017.8 |
| 20260501201830 | 64 | 249 | 1.7 | 3.5 | 0.00 | 0.00 | 0.00 | 39 | 1017.8 |
| 20260501201330 | 65 | 242 | 1.7 | 3.5 | 0.00 | 0.00 | 0.00 | 39 | 1017.9 |
| 20260501200830 | 65 | 344 | 1.7 | 4.3 | 0.00 | 0.00 | 0.00 | 39 | 1018.1 |
| 20260501200329 | 64 | 21 | 0.9 | 1.7 | 0.00 | 0.00 | 0.00 | 40 | 1018.1 |
| 20260501195829 | 64 | 350 | 0.9 | 3.5 | 0.00 | 0.00 | 0.00 | 39 | 1018.1 |
| 20260501195329 | 65 | 246 | 0.9 | 3.5 | 0.00 | 0.00 | 0.00 | 40 | 1018.2 |
| 20260501194829 | 66 | 282 | 0.0 | 3.5 | 0.00 | 0.00 | 0.00 | 38 | 1018.3 |
| 20260501194329 | 66 | 279 | 1.7 | 5.2 | 0.00 | 0.00 | 0.00 | 39 | 1018.3 |
| 20260501193829 | 66 | 306 | 1.7 | 3.5 | 0.00 | 0.00 | 0.00 | 39 | 1018.5 |
| 20260501193329 | 64 | 230 | 0.9 | 1.7 | 0.00 | 0.00 | 0.00 | 41 | 1018.5 |
| 20260501192829 | 64 | 21 | 1.7 | 2.6 | 0.00 | 0.00 | 0.00 | 40 | 1018.5 |
| 20260501192329 | 64 | 247 | 1.7 | 2.6 | 0.00 | 0.00 | 0.00 | 40 | 1018.5 |
| 20260501191829 | 65 | 299 | 0.9 | 1.7 | 0.00 | 0.00 | 0.00 | 41 | 1018.5 |
| 20260501191329 | 64 | 187 | 1.7 | 3.5 | 0.00 | 0.00 | 0.00 | 41 | 1018.5 |
| 20260501190831 | 64 | 35 | 0.9 | 3.5 | 0.00 | 0.00 | 0.00 | 39 | 1018.5 |
| 20260501190331 | 64 | 49 | 0.0 | 2.6 | 0.00 | 0.00 | 0.00 | 41 | 1018.6 |
| 20260501185830 | 64 | 244 | 1.7 | 3.5 | 0.00 | 0.00 | 0.00 | 40 | 1018.7 |
| 20260501185329 | 64 | 17 | 1.7 | 3.5 | 0.00 | 0.00 | 0.00 | 42 | 1018.6 |
| 20260501184829 | 65 | 270 | 3.5 | 7.0 | 0.00 | 0.00 | 0.00 | 40 | 1018.6 |
| 20260501184329 | 65 | 255 | 1.7 | 3.5 | 0.00 | 0.00 | 0.00 | 40 | 1018.6 |
| 20260501183830 | 65 | 264 | 2.6 | 4.3 | 0.00 | 0.00 | 0.00 | 42 | 1018.6 |
| 20260501183330 | 65 | 253 | 2.6 | 5.2 | 0.00 | 0.00 | 0.00 | 41 | 1018.7 |
| 20260501182830 | 64 | 232 | 2.6 | 5.2 | 0.00 | 0.00 | 0.00 | 40 | 1018.8 |
| 20260501182329 | 65 | 293 | 0.9 | 2.6 | 0.00 | 0.00 | 0.00 | 40 | 1018.8 |
| 20260501181830 | 65 | 234 | 1.7 | 3.5 | 0.00 | 0.00 | 0.00 | 41 | 1018.8 |
| 20260501181331 | 64 | 273 | 1.7 | 4.3 | 0.00 | 0.00 | 0.00 | 40 | 1018.8 |
| 20260501180830 | 64 | 16 | 0.9 | 2.6 | 0.00 | 0.00 | 0.00 | 39 | 1018.9 |
| 20260501180329 | 64 | 257 | 1.7 | 3.5 | 0.00 | 0.00 | 0.00 | 40 | 1019.0 |
| 20260501175830 | 64 | 23 | 3.5 | 5.2 | 0.00 | 0.00 | 0.00 | 38 | 1019.0 |
| 20260501175330 | 65 | 283 | 1.7 | 4.3 | 0.00 | 0.00 | 0.00 | 39 | 1019.1 |
| 20260501174829 | 65 | 14 | 3.5 | 7.8 | 0.00 | 0.00 | 0.00 | 39 | 1019.0 |
| 20260501174330 | 64 | 296 | 0.9 | 2.6 | 0.00 | 0.00 | 0.00 | 41 | 1019.1 |
| 20260501173830 | 64 | 296 | 1.7 | 3.5 | 0.00 | 0.00 | 0.00 | 40 | 1019.0 |
| 20260501173329 | 64 | 1 | 0.9 | 3.5 | 0.00 | 0.00 | 0.00 | 39 | 1019.1 |
| 20260501172329 | 62 | 120 | 1.7 | 4.3 | 0.00 | 0.00 | 0.00 | 41 | 1019.2 |
| 20260501171829 | 62 | 248 | 1.7 | 3.5 | 0.00 | 0.00 | 0.00 | 43 | 1019.2 |
| 20260501171329 | 62 | 213 | 4.3 | 7.0 | 0.00 | 0.00 | 0.00 | 41 | 1019.3 |
| 20260501170830 | 61 | 189 | 0.9 | 1.7 | 0.00 | 0.00 | 0.00 | 41 | 1019.3 |
| 20260501170329 | 62 | 196 | 1.7 | 5.2 | 0.00 | 0.00 | 0.00 | 41 | 1019.4 |
| 20260501165829 | 62 | 265 | 1.7 | 3.5 | 0.00 | 0.00 | 0.00 | 39 | 1019.4 |
| 20260501165329 | 62 | 142 | 0.9 | 2.6 | 0.00 | 0.00 | 0.00 | 42 | 1019.4 |
| 20260501164830 | 61 | 258 | 3.5 | 7.8 | 0.00 | 0.00 | 0.00 | 40 | 1019.4 |
| 20260501164330 | 61 | 194 | 0.9 | 2.6 | 0.00 | 0.00 | 0.00 | 41 | 1019.4 |
| 20260501163829 | 61 | 271 | 0.9 | 1.7 | 0.00 | 0.00 | 0.00 | 41 | 1019.4 |
| 20260501163330 | 62 | 225 | 2.6 | 4.3 | 0.00 | 0.00 | 0.00 | 42 | 1019.4 |
| 20260501162830 | 61 | 241 | 1.7 | 2.6 | 0.00 | 0.00 | 0.00 | 44 | 1019.4 |
| 20260501162329 | 61 | 243 | 0.9 | 1.7 | 0.00 | 0.00 | 0.00 | 43 | 1019.4 |
| 20260501161830 | 60 | 218 | 1.7 | 2.6 | 0.00 | 0.00 | 0.00 | 45 | 1019.3 |
| 20260501161330 | 60 | 113 | 2.6 | 4.3 | 0.00 | 0.00 | 0.00 | 46 | 1019.2 |
| 20260501160830 | 60 | 209 | 1.7 | 3.5 | 0.00 | 0.00 | 0.00 | 47 | 1019.3 |
| 20260501160329 | 59 | 290 | 1.7 | 3.5 | 0.00 | 0.00 | 0.00 | 49 | 1019.2 |
| 20260501155831 | 59 | 55 | 0.9 | 2.6 | 0.00 | 0.00 | 0.00 | 47 | 1019.3 |
| 20260501155329 | 59 | 259 | 0.9 | 3.5 | 0.00 | 0.00 | 0.00 | 46 | 1019.3 |
| 20260501154829 | 58 | 205 | 0.9 | 2.6 | 0.00 | 0.00 | 0.00 | 47 | 1019.2 |
| 20260501154329 | 59 | 234 | 2.6 | 6.1 | 0.00 | 0.00 | 0.00 | 46 | 1019.2 |